| time (UTC) | temp F | wind direction | speed MPH | gust MPH | rain 1hr in | rain 24hr in | rain mn in | humidity % | barometer mb |
| 20260831103404 | 82 | 332 | 0.0 | 2.0 | 0.00 | 1.07 | 1.06 | 91 | 997.6 |
| 20260831102904 | 82 | 341 | 1.0 | 2.0 | 0.00 | 1.07 | 1.06 | 91 | 997.6 |
| 20260831102403 | 83 | 340 | 1.0 | 2.0 | 0.01 | 1.07 | 1.06 | 91 | 997.5 |
| 20260831101904 | 82 | 334 | 0.0 | 1.0 | 0.01 | 1.07 | 1.06 | 91 | 997.4 |
| 20260831101403 | 83 | 340 | 1.0 | 2.0 | 0.01 | 1.07 | 1.06 | 90 | 997.4 |
| 20260831100903 | 83 | 333 | 0.0 | 2.0 | 0.01 | 1.07 | 1.06 | 90 | 997.3 |
| 20260831100404 | 82 | 338 | 0.0 | 2.0 | 0.01 | 1.07 | 1.06 | 90 | 997.3 |
| 20260831095904 | 83 | 328 | 1.0 | 2.0 | 0.01 | 1.07 | 1.06 | 90 | 997.3 |
| 20260831095404 | 83 | 332 | 1.0 | 2.0 | 0.01 | 1.07 | 1.06 | 90 | 997.2 |
| 20260831094904 | 83 | 347 | 0.0 | 1.0 | 0.01 | 1.07 | 1.06 | 90 | 997.1 |
| 20260831094403 | 83 | 0 | 1.0 | 2.0 | 0.01 | 1.07 | 1.06 | 89 | 997.0 |
| 20260831093904 | 83 | 316 | 0.0 | 1.0 | 0.01 | 1.07 | 1.06 | 89 | 996.9 |
| 20260831092403 | 84 | 357 | 0.0 | 2.0 | 0.00 | 1.06 | 1.05 | 89 | 996.9 |
| 20260831091404 | 84 | 323 | 0.0 | 3.0 | 0.00 | 1.06 | 1.05 | 89 | 996.9 |
| 20260831090904 | 84 | 310 | 0.0 | 2.0 | 0.00 | 1.06 | 1.05 | 89 | 996.9 |
| 20260831090404 | 83 | 309 | 1.0 | 3.0 | 0.00 | 1.06 | 1.05 | 89 | 996.8 |
| 20260831085404 | 83 | 320 | 0.0 | 2.0 | 0.00 | 1.06 | 1.05 | 90 | 996.8 |
| 20260831084904 | 82 | 334 | 1.0 | 2.0 | 0.00 | 1.06 | 1.05 | 91 | 996.8 |
| 20260831084404 | 82 | 337 | 0.0 | 2.0 | 0.00 | 1.06 | 1.05 | 91 | 996.9 |
| 20260831083904 | 82 | 337 | 1.0 | 3.0 | 0.00 | 1.06 | 1.05 | 91 | 996.8 |
| 20260831083404 | 82 | 335 | 1.0 | 3.0 | 0.00 | 1.06 | 1.05 | 92 | 996.9 |
| 20260831082903 | 82 | 55 | 2.0 | 3.0 | 0.00 | 1.06 | 1.05 | 92 | 997.0 |
| 20260831082403 | 82 | 330 | 0.0 | 1.0 | 0.00 | 1.06 | 1.05 | 92 | 996.8 |
| 20260831081404 | 82 | 335 | 1.0 | 2.0 | 0.00 | 1.06 | 1.05 | 92 | 996.9 |
| 20260831080905 | 81 | 317 | 1.0 | 2.0 | 0.00 | 1.06 | 1.05 | 93 | 996.9 |
| 20260831080403 | 81 | 355 | 1.0 | 2.0 | 0.00 | 1.06 | 1.05 | 93 | 997.0 |
| 20260831075904 | 81 | 333 | 1.0 | 2.0 | 0.00 | 1.06 | 1.05 | 94 | 997.0 |
| 20260831075404 | 81 | 322 | 0.0 | 0.0 | 0.00 | 1.06 | 1.05 | 94 | 996.9 |
| 20260831074904 | 81 | 318 | 0.0 | 0.0 | 0.00 | 1.06 | 1.05 | 95 | 997.0 |
| 20260831074404 | 80 | 314 | 0.0 | 0.0 | 0.00 | 1.06 | 1.05 | 95 | 997.0 |
| 20260831073904 | 80 | 314 | 0.0 | 0.0 | 0.01 | 1.06 | 1.05 | 95 | 997.0 |
| 20260831073404 | 80 | 334 | 0.0 | 2.0 | 0.01 | 1.06 | 1.05 | 95 | 997.2 |
| 20260831072904 | 80 | 325 | 1.0 | 2.0 | 0.01 | 1.06 | 1.05 | 96 | 997.2 |
| 20260831072404 | 80 | 323 | 0.0 | 2.0 | 0.01 | 1.06 | 1.05 | 96 | 997.3 |
| 20260831071904 | 80 | 325 | 0.0 | 2.0 | 0.01 | 1.06 | 1.05 | 96 | 997.2 |
| 20260831071404 | 80 | 18 | 1.0 | 2.0 | 0.01 | 1.06 | 1.05 | 97 | 997.1 |
| 20260831070904 | 80 | 349 | 0.0 | 1.0 | 0.01 | 1.06 | 1.05 | 97 | 997.0 |
| 20260831070404 | 80 | 66 | 3.0 | 6.0 | 0.01 | 1.06 | 1.05 | 96 | 997.0 |
| 20260831065903 | 80 | 356 | 1.0 | 3.0 | 0.01 | 1.06 | 1.05 | 97 | 997.0 |
| 20260831065404 | 80 | 333 | 0.0 | 0.0 | 0.01 | 1.06 | 1.05 | 96 | 997.0 |
| 20260831064405 | 79 | 328 | 1.0 | 3.0 | 0.05 | 1.06 | 1.05 | 96 | 997.3 |
| 20260831063904 | 79 | 27 | 2.0 | 3.0 | 0.12 | 1.05 | 1.04 | 96 | 997.4 |
| 20260831063404 | 80 | 10 | 1.0 | 3.0 | 0.21 | 1.05 | 1.04 | 95 | 997.6 |
| 20260831062903 | 80 | 353 | 2.0 | 6.0 | 0.27 | 1.05 | 1.04 | 95 | 997.7 |
| 20260831061904 | 81 | 321 | 0.0 | 0.0 | 0.48 | 1.05 | 1.04 | 97 | 997.7 |
| 20260831061404 | 81 | 322 | 0.0 | 2.0 | 0.64 | 1.05 | 1.04 | 97 | 997.7 |
| 20260831060904 | 81 | 307 | 0.0 | 2.0 | 0.79 | 1.05 | 1.04 | 97 | 997.7 |
| 20260831060404 | 80 | 323 | 0.0 | 2.0 | 0.87 | 1.05 | 1.04 | 97 | 997.7 |
| 20260831055904 | 80 | 271 | 0.0 | 2.0 | 0.92 | 1.05 | 1.04 | 97 | 997.7 |
| 20260831055404 | 80 | 268 | 0.0 | 1.0 | 0.94 | 1.05 | 1.04 | 97 | 997.7 |
| 20260831054403 | 80 | 300 | 0.0 | 1.0 | 0.95 | 1.01 | 1.00 | 97 | 997.9 |
| 20260831053904 | 80 | 338 | 0.0 | 0.0 | 0.87 | 0.93 | 0.92 | 97 | 998.0 |
| 20260831052904 | 80 | 330 | 0.0 | 1.0 | 0.73 | 0.78 | 0.77 | 96 | 998.2 |
| 20260831051904 | 80 | 296 | 0.0 | 2.0 | 0.52 | 0.57 | 0.56 | 96 | 998.5 |
| 20260831051404 | 80 | 38 | 1.0 | 5.0 | 0.37 | 0.41 | 0.40 | 95 | 998.6 |
| 20260831050904 | 81 | 0 | 2.0 | 5.0 | 0.22 | 0.26 | 0.25 | 93 | 998.6 |
| 20260831050403 | 82 | 32 | 3.0 | 6.0 | 0.14 | 0.18 | 0.17 | 93 | 998.7 |
| 20260831045404 | 83 | 31 | 0.0 | 2.0 | 0.08 | 0.11 | 0.10 | 93 | 998.5 |
| 20260831044404 | 83 | 37 | 2.0 | 6.0 | 0.05 | 0.06 | 0.05 | 91 | 998.5 |
| 20260831043904 | 84 | 61 | 2.0 | 3.0 | 0.05 | 0.06 | 0.05 | 91 | 998.5 |
| 20260831043404 | 84 | 24 | 0.0 | 1.0 | 0.04 | 0.05 | 0.04 | 91 | 998.6 |
| 20260831042904 | 84 | 275 | 0.0 | 1.0 | 0.04 | 0.05 | 0.04 | 92 | 998.6 |
| 20260831042404 | 84 | 55 | 1.0 | 3.0 | 0.04 | 0.05 | 0.04 | 91 | 998.6 |
| 20260831040904 | 85 | 351 | 0.0 | 0.0 | 0.03 | 0.04 | 0.03 | 90 | 998.8 |
| 20260831040403 | 85 | 47 | 0.0 | 2.0 | 0.03 | 0.04 | 0.03 | 89 | 998.7 |
| 20260831035904 | 86 | 46 | 0.0 | 3.0 | 0.03 | 0.04 | 0.03 | 86 | 998.7 |
| 20260831035404 | 87 | 8 | 0.0 | 3.0 | 0.02 | 0.03 | 0.02 | 84 | 998.7 |
| 20260831034904 | 87 | 325 | 0.0 | 3.0 | 0.01 | 0.02 | 0.01 | 84 | 998.8 |
| 20260831034404 | 87 | 297 | 0.0 | 5.0 | 0.00 | 0.01 | 0.00 | 82 | 998.8 |
| 20260831033904 | 88 | 324 | 1.0 | 3.0 | 0.00 | 0.01 | 0.00 | 81 | 998.9 |
| 20260831033404 | 88 | 296 | 0.0 | 2.0 | 0.00 | 0.01 | 0.00 | 81 | 998.9 |
| 20260831032905 | 88 | 275 | 1.0 | 2.0 | 0.00 | 0.01 | 0.00 | 81 | 998.9 |
| 20260831032404 | 88 | 261 | 1.0 | 2.0 | 0.00 | 0.01 | 0.00 | 81 | 999.0 |
| 20260831031904 | 88 | 284 | 1.0 | 3.0 | 0.00 | 0.01 | 0.00 | 81 | 999.0 |
| 20260831031404 | 88 | 315 | 0.0 | 3.0 | 0.00 | 0.01 | 0.00 | 81 | 999.0 |
| 20260831030904 | 88 | 276 | 0.0 | 2.0 | 0.00 | 0.01 | 0.00 | 82 | 999.0 |
| 20260831030404 | 87 | 236 | 0.0 | 3.0 | 0.00 | 0.01 | 0.00 | 82 | 999.1 |
| 20260831025904 | 87 | 339 | 0.0 | 3.0 | 0.00 | 0.01 | 0.00 | 83 | 999.1 |
| 20260831025404 | 87 | 62 | 1.0 | 5.0 | 0.00 | 0.01 | 0.00 | 83 | 999.1 |
| 20260831024904 | 87 | 272 | 2.0 | 5.0 | 0.00 | 0.01 | 0.00 | 82 | 999.1 |
| 20260831023904 | 86 | 42 | 2.0 | 3.0 | 0.00 | 0.01 | 0.00 | 82 | 999.1 |
| 20260831023404 | 87 | 53 | 2.0 | 3.0 | 0.00 | 0.01 | 0.00 | 82 | 999.1 |
| 20260831022404 | 86 | 355 | 0.0 | 3.0 | 0.00 | 0.01 | 0.00 | 83 | 999.1 |
| 20260831021904 | 86 | 40 | 1.0 | 3.0 | 0.00 | 0.01 | 0.00 | 83 | 999.1 |
| 20260831021404 | 86 | 8 | 1.0 | 3.0 | 0.00 | 0.01 | 0.00 | 83 | 999.1 |
| 20260831020904 | 86 | 351 | 1.0 | 3.0 | 0.00 | 0.01 | 0.00 | 83 | 999.1 |
| 20260831020404 | 85 | 330 | 0.0 | 2.0 | 0.00 | 0.01 | 0.00 | 84 | 999.0 |
| 20260831015904 | 85 | 27 | 1.0 | 3.0 | 0.00 | 0.01 | 0.00 | 85 | 998.9 |
| 20260831015404 | 85 | 343 | 1.0 | 3.0 | 0.00 | 0.01 | 0.00 | 85 | 999.0 |
| 20260831014904 | 85 | 341 | 2.0 | 3.0 | 0.00 | 0.01 | 0.00 | 84 | 998.9 |
| 20260831014404 | 85 | 21 | 1.0 | 3.0 | 0.00 | 0.01 | 0.00 | 84 | 998.9 |
| 20260831013903 | 85 | 22 | 1.0 | 3.0 | 0.00 | 0.01 | 0.00 | 84 | 999.0 |
| 20260831013404 | 85 | 24 | 1.0 | 3.0 | 0.00 | 0.01 | 0.00 | 84 | 999.0 |
| 20260831012904 | 85 | 317 | 0.0 | 3.0 | 0.00 | 0.01 | 0.00 | 85 | 999.0 |
| 20260831012404 | 85 | 307 | 0.0 | 2.0 | 0.00 | 0.01 | 0.00 | 85 | 999.0 |
| 20260831011904 | 85 | 324 | 0.0 | 2.0 | 0.00 | 0.01 | 0.00 | 85 | 999.0 |
| 20260831011404 | 84 | 283 | 0.0 | 1.0 | 0.00 | 0.01 | 0.00 | 86 | 999.0 |
| 20260831010904 | 84 | 253 | 0.0 | 3.0 | 0.00 | 0.01 | 0.00 | 86 | 999.1 |
| 20260831010404 | 84 | 341 | 2.0 | 3.0 | 0.00 | 0.01 | 0.00 | 86 | 999.2 |
| 20260831005404 | 83 | 308 | 0.0 | 3.0 | 0.00 | 0.01 | 0.00 | 87 | 999.3 |
| 20260831004404 | 83 | 8 | 1.0 | 3.0 | 0.00 | 0.01 | 0.00 | 86 | 999.3 |
| 20260831003904 | 83 | 10 | 0.0 | 2.0 | 0.00 | 0.01 | 0.00 | 87 | 999.2 |
| 20260831003404 | 83 | 328 | 1.0 | 2.0 | 0.00 | 0.01 | 0.00 | 87 | 999.2 |
| 20260831002904 | 83 | 332 | 0.0 | 2.0 | 0.00 | 0.01 | 0.00 | 87 | 999.3 |
| 20260831002404 | 83 | 328 | 2.0 | 3.0 | 0.00 | 0.01 | 0.00 | 88 | 999.3 |
| 20260831001404 | 83 | 321 | 0.0 | 2.0 | 0.00 | 0.01 | 0.00 | 88 | 999.3 |
| 20260831000903 | 83 | 249 | 1.0 | 3.0 | 0.00 | 0.01 | 0.00 | 88 | 999.2 |
| 20260831000404 | 83 | 341 | 0.0 | 2.0 | 0.00 | 0.01 | 0.00 | 88 | 999.3 |
| 20260830235904 | 83 | 290 | 0.0 | 1.0 | 0.00 | 0.01 | 0.00 | 89 | 999.2 |
| 20260830235404 | 82 | 277 | 1.0 | 3.0 | 0.00 | 0.01 | 0.00 | 89 | 999.2 |
| 20260830234904 | 82 | 310 | 0.0 | 3.0 | 0.00 | 0.01 | 0.00 | 88 | 999.2 |
| 20260830234404 | 83 | 321 | 0.0 | 2.0 | 0.00 | 0.01 | 0.00 | 88 | 999.1 |
| 20260830233904 | 83 | 354 | 0.0 | 1.0 | 0.00 | 0.01 | 0.00 | 88 | 999.0 |
| 20260830233404 | 83 | 328 | 1.0 | 2.0 | 0.00 | 0.01 | 0.00 | 88 | 999.0 |
| 20260830232904 | 83 | 359 | 0.0 | 2.0 | 0.00 | 0.01 | 0.00 | 88 | 998.9 |
| 20260830232404 | 83 | 300 | 0.0 | 0.0 | 0.00 | 0.01 | 0.00 | 88 | 998.8 |
| 20260830231904 | 83 | 257 | 0.0 | 0.0 | 0.00 | 0.01 | 0.00 | 88 | 998.7 |
| 20260830231404 | 82 | 264 | 0.0 | 0.0 | 0.00 | 0.01 | 0.00 | 88 | 998.7 |
| 20260830230904 | 82 | 331 | 0.0 | 0.0 | 0.00 | 0.01 | 0.00 | 88 | 998.7 |
| 20260830230404 | 82 | 341 | 0.0 | 0.0 | 0.00 | 0.01 | 0.00 | 88 | 998.7 |
| 20260830224904 | 82 | 266 | 0.0 | 1.0 | 0.00 | 0.01 | 0.00 | 87 | 998.6 |
| 20260830224404 | 82 | 262 | 0.0 | 1.0 | 0.00 | 0.01 | 0.00 | 87 | 998.6 |
| 20260830223904 | 82 | 264 | 0.0 | 2.0 | 0.00 | 0.01 | 0.00 | 87 | 998.5 |
| 20260830223404 | 82 | 263 | 0.0 | 1.0 | 0.00 | 0.01 | 0.00 | 87 | 998.5 |
| 20260830222904 | 82 | 261 | 0.0 | 1.0 | 0.00 | 0.01 | 0.00 | 88 | 998.5 |
| 20260830222405 | 82 | 278 | 0.0 | 0.0 | 0.00 | 0.01 | 0.00 | 88 | 998.4 |
| 20260830221903 | 82 | 279 | 0.0 | 1.0 | 0.00 | 0.01 | 0.00 | 88 | 998.4 |
| 20260830221404 | 82 | 284 | 0.0 | 2.0 | 0.00 | 0.01 | 0.00 | 87 | 998.4 |
| 20260830220904 | 82 | 272 | 0.0 | 1.0 | 0.00 | 0.01 | 0.00 | 87 | 998.3 |
| 20260830220403 | 82 | 268 | 0.0 | 1.0 | 0.00 | 0.01 | 0.00 | 87 | 998.2 |
| 20260830215404 | 82 | 273 | 0.0 | 0.0 | 0.00 | 0.01 | 0.00 | 87 | 998.3 |
| 20260830214904 | 82 | 274 | 0.0 | 0.0 | 0.00 | 0.01 | 0.00 | 87 | 998.3 |
| 20260830213904 | 83 | 284 | 0.0 | 1.0 | 0.00 | 0.01 | 0.00 | 87 | 998.1 |
| 20260830213404 | 83 | 332 | 0.0 | 1.0 | 0.00 | 0.01 | 0.00 | 87 | 998.0 |
| 20260830212904 | 83 | 337 | 0.0 | 2.0 | 0.00 | 0.01 | 0.00 | 87 | 998.0 |
| 20260830212404 | 83 | 356 | 1.0 | 3.0 | 0.00 | 0.01 | 0.00 | 87 | 998.0 |
| 20260830211904 | 83 | 348 | 2.0 | 3.0 | 0.00 | 0.01 | 0.00 | 86 | 997.9 |
| 20260830211404 | 83 | 275 | 0.0 | 1.0 | 0.00 | 0.01 | 0.00 | 86 | 997.8 |
| 20260830210903 | 83 | 268 | 0.0 | 0.0 | 0.00 | 0.01 | 0.00 | 86 | 997.7 |
| 20260830205404 | 83 | 307 | 0.0 | 2.0 | 0.00 | 0.01 | 0.00 | 87 | 997.6 |
| 20260830204403 | 83 | 310 | 0.0 | 0.0 | 0.00 | 0.01 | 0.00 | 87 | 997.5 |
| 20260830203904 | 83 | 310 | 0.0 | 1.0 | 0.00 | 0.01 | 0.00 | 87 | 997.5 |
| 20260830203404 | 83 | 303 | 0.0 | 1.0 | 0.00 | 0.01 | 0.00 | 87 | 997.6 |
| 20260830202404 | 83 | 337 | 0.0 | 2.0 | 0.00 | 0.01 | 0.00 | 87 | 997.7 |
| 20260830201904 | 83 | 349 | 0.0 | 2.0 | 0.00 | 0.01 | 0.00 | 87 | 997.7 |
| 20260830201405 | 83 | 341 | 0.0 | 2.0 | 0.00 | 0.01 | 0.00 | 87 | 997.7 |
| 20260830200904 | 83 | 314 | 0.0 | 1.0 | 0.00 | 0.01 | 0.00 | 87 | 997.8 |
| 20260830200404 | 83 | 277 | 0.0 | 0.0 | 0.00 | 0.01 | 0.00 | 87 | 997.8 |
| 20260830195904 | 83 | 267 | 0.0 | 0.0 | 0.00 | 0.01 | 0.00 | 87 | 997.9 |
| 20260830195404 | 83 | 275 | 0.0 | 0.0 | 0.00 | 0.01 | 0.00 | 87 | 997.9 |
| 20260830194903 | 83 | 295 | 0.0 | 0.0 | 0.00 | 0.01 | 0.00 | 88 | 997.9 |
| 20260830194404 | 82 | 19 | 0.0 | 2.0 | 0.00 | 0.01 | 0.00 | 87 | 998.0 |
| 20260830193904 | 83 | 322 | 0.0 | 2.0 | 0.00 | 0.01 | 0.00 | 87 | 998.0 |
| 20260830192904 | 83 | 356 | 2.0 | 3.0 | 0.00 | 0.01 | 0.00 | 87 | 997.8 |
| 20260830192404 | 83 | 332 | 0.0 | 0.0 | 0.00 | 0.01 | 0.00 | 87 | 997.9 |
| 20260830191904 | 83 | 332 | 0.0 | 1.0 | 0.00 | 0.01 | 0.00 | 87 | 997.9 |
| 20260830191404 | 83 | 348 | 2.0 | 3.0 | 0.00 | 0.01 | 0.00 | 87 | 998.0 |
| 20260830190904 | 83 | 350 | 1.0 | 1.0 | 0.00 | 0.01 | 0.00 | 87 | 998.1 |
| 20260830190404 | 83 | 343 | 0.0 | 0.0 | 0.00 | 0.01 | 0.00 | 87 | 998.0 |
| 20260830185904 | 83 | 335 | 0.0 | 0.0 | 0.00 | 0.01 | 0.00 | 88 | 998.0 |
| 20260830185404 | 83 | 2 | 0.0 | 1.0 | 0.00 | 0.01 | 0.00 | 88 | 998.0 |
| 20260830184904 | 83 | 332 | 0.0 | 1.0 | 0.00 | 0.01 | 0.00 | 88 | 997.9 |
| 20260830184404 | 83 | 332 | 0.0 | 1.0 | 0.00 | 0.01 | 0.00 | 88 | 997.9 |
| 20260830183904 | 83 | 334 | 0.0 | 1.0 | 0.00 | 0.01 | 0.00 | 89 | 997.9 |
| 20260830183404 | 83 | 342 | 1.0 | 1.0 | 0.00 | 0.01 | 0.00 | 89 | 998.0 |
| 20260830182403 | 83 | 311 | 0.0 | 1.0 | 0.00 | 0.01 | 0.00 | 89 | 998.3 |
| 20260830181904 | 83 | 311 | 0.0 | 1.0 | 0.00 | 0.01 | 0.00 | 89 | 998.3 |
| 20260830181404 | 83 | 310 | 0.0 | 0.0 | 0.00 | 0.01 | 0.00 | 89 | 998.3 |
| 20260830180904 | 83 | 325 | 0.0 | 1.0 | 0.00 | 0.01 | 0.00 | 89 | 998.3 |
| 20260830180404 | 83 | 328 | 0.0 | 1.0 | 0.00 | 0.01 | 0.00 | 89 | 998.3 |
| 20260830175903 | 83 | 0 | 0.0 | 3.0 | 0.00 | 0.01 | 0.00 | 89 | 998.3 |
| 20260830175403 | 83 | 343 | 0.0 | 1.0 | 0.00 | 0.01 | 0.00 | 89 | 998.4 |
| 20260830174903 | 83 | 339 | 1.0 | 3.0 | 0.00 | 0.01 | 0.00 | 89 | 998.4 |
| 20260830174404 | 83 | 356 | 1.0 | 3.0 | 0.00 | 0.01 | 0.00 | 88 | 998.4 |
| 20260830172904 | 84 | 333 | 0.0 | 1.0 | 0.00 | 0.01 | 0.00 | 88 | 998.6 |
| 20260830172404 | 84 | 291 | 0.0 | 1.0 | 0.00 | 0.01 | 0.00 | 88 | 998.6 |
| 20260830171904 | 84 | 338 | 0.0 | 0.0 | 0.00 | 0.01 | 0.00 | 88 | 998.6 |
| 20260830171403 | 84 | 341 | 0.0 | 2.0 | 0.00 | 0.01 | 0.00 | 88 | 998.6 |
| 20260830170404 | 83 | 327 | 0.0 | 2.0 | 0.00 | 0.01 | 0.00 | 88 | 998.7 |
| 20260830165904 | 83 | 327 | 0.0 | 0.0 | 0.00 | 0.01 | 0.00 | 89 | 998.8 |
| 20260830165403 | 83 | 328 | 0.0 | 1.0 | 0.00 | 0.01 | 0.00 | 89 | 998.8 |
| 20260830164904 | 83 | 329 | 0.0 | 1.0 | 0.00 | 0.01 | 0.00 | 88 | 998.8 |
| 20260830164404 | 83 | 331 | 0.0 | 1.0 | 0.00 | 0.01 | 0.00 | 89 | 998.9 |
| 20260830163904 | 83 | 332 | 0.0 | 3.0 | 0.00 | 0.01 | 0.00 | 89 | 999.0 |
| 20260830163404 | 83 | 340 | 1.0 | 3.0 | 0.00 | 0.01 | 0.00 | 88 | 999.0 |
| 20260830162904 | 84 | 337 | 0.0 | 2.0 | 0.00 | 0.01 | 0.00 | 88 | 999.0 |
| 20260830162404 | 84 | 338 | 1.0 | 2.0 | 0.00 | 0.01 | 0.00 | 88 | 999.2 |
| 20260830161904 | 84 | 333 | 0.0 | 1.0 | 0.00 | 0.01 | 0.00 | 89 | 999.2 |
| 20260830160904 | 84 | 297 | 0.0 | 1.0 | 0.00 | 0.01 | 0.00 | 88 | 999.3 |
| 20260830160405 | 84 | 343 | 0.0 | 0.0 | 0.00 | 0.01 | 0.00 | 89 | 999.2 |
| 20260830155904 | 84 | 25 | 0.0 | 2.0 | 0.00 | 0.01 | 0.01 | 88 | 999.2 |
| 20260830155404 | 84 | 329 | 0.0 | 0.0 | 0.00 | 0.01 | 0.01 | 89 | 999.4 |
| 20260830154903 | 84 | 327 | 0.0 | 0.0 | 0.00 | 0.01 | 0.01 | 89 | 999.5 |
| 20260830154404 | 84 | 338 | 1.0 | 2.0 | 0.00 | 0.01 | 0.01 | 89 | 999.6 |
| 20260830153904 | 84 | 343 | 0.0 | 1.0 | 0.00 | 0.01 | 0.01 | 89 | 999.7 |
| 20260830152904 | 84 | 354 | 0.0 | 2.0 | 0.00 | 0.01 | 0.01 | 89 | 999.6 |
| 20260830151904 | 84 | 333 | 1.0 | 3.0 | 0.00 | 0.01 | 0.01 | 89 | 999.6 |
| 20260830150904 | 84 | 332 | 0.0 | 2.0 | 0.00 | 0.01 | 0.01 | 89 | 999.6 |
| 20260830150404 | 84 | 345 | 1.0 | 2.0 | 0.00 | 0.01 | 0.01 | 89 | 999.5 |
| 20260830145904 | 84 | 340 | 1.0 | 2.0 | 0.00 | 0.01 | 0.01 | 89 | 999.6 |
| 20260830145404 | 84 | 339 | 0.0 | 3.0 | 0.00 | 0.01 | 0.01 | 88 | 999.5 |
| 20260830144904 | 84 | 64 | 3.0 | 3.0 | 0.00 | 0.01 | 0.01 | 88 | 999.5 |
| 20260830143404 | 85 | 312 | 1.0 | 3.0 | 0.00 | 0.01 | 0.01 | 88 | 999.2 |
| 20260830142904 | 85 | 336 | 1.0 | 3.0 | 0.00 | 0.01 | 0.01 | 88 | 999.1 |
| 20260830142404 | 85 | 331 | 1.0 | 3.0 | 0.01 | 0.01 | 0.01 | 88 | 999.0 |
| 20260830141904 | 85 | 317 | 0.0 | 2.0 | 0.01 | 0.01 | 0.01 | 88 | 999.0 |
| 20260830141404 | 85 | 326 | 1.0 | 3.0 | 0.01 | 0.01 | 0.01 | 88 | 999.0 |
| 20260830140903 | 85 | 333 | 0.0 | 3.0 | 0.01 | 0.01 | 0.01 | 88 | 999.0 |
| 20260830140404 | 85 | 345 | 1.0 | 3.0 | 0.01 | 0.01 | 0.01 | 88 | 999.0 |
| 20260830135904 | 85 | 355 | 1.0 | 3.0 | 0.01 | 0.01 | 0.01 | 88 | 999.1 |
| 20260830135404 | 85 | 26 | 1.0 | 5.0 | 0.01 | 0.01 | 0.01 | 88 | 999.2 |
| 20260830134404 | 85 | 50 | 1.0 | 3.0 | 0.01 | 0.01 | 0.01 | 88 | 999.2 |
| 20260830133904 | 85 | 37 | 1.0 | 5.0 | 0.01 | 0.01 | 0.01 | 88 | 999.2 |
| 20260830133404 | 84 | 338 | 1.0 | 3.0 | 0.01 | 0.01 | 0.01 | 90 | 999.3 |
| 20260830132404 | 84 | 348 | 1.0 | 3.0 | 0.00 | 0.00 | 0.00 | 90 | 999.3 |
| 20260830131904 | 84 | 325 | 1.0 | 3.0 | 0.00 | 0.00 | 0.00 | 90 | 999.3 |
| 20260830131403 | 84 | 343 | 0.0 | 2.0 | 0.00 | 0.00 | 0.00 | 90 | 999.3 |
| 20260830130404 | 84 | 333 | 1.0 | 3.0 | 0.00 | 0.00 | 0.00 | 89 | 999.3 |
| 20260830125903 | 85 | 7 | 1.0 | 3.0 | 0.00 | 0.00 | 0.00 | 89 | 999.2 |
| 20260830125404 | 85 | 13 | 0.0 | 2.0 | 0.00 | 0.00 | 0.00 | 88 | 999.1 |
| 20260830124904 | 85 | 54 | 1.0 | 2.0 | 0.00 | 0.00 | 0.00 | 88 | 999.0 |
| 20260830124404 | 85 | 17 | 0.0 | 1.0 | 0.00 | 0.00 | 0.00 | 87 | 999.0 |
| 20260830123904 | 85 | 13 | 0.0 | 1.0 | 0.00 | 0.00 | 0.00 | 87 | 999.1 |
| 20260830122904 | 85 | 333 | 1.0 | 2.0 | 0.00 | 0.00 | 0.00 | 87 | 999.2 |
| 20260830122404 | 85 | 24 | 0.0 | 0.0 | 0.00 | 0.00 | 0.00 | 86 | 999.2 |
| 20260830121404 | 85 | 39 | 1.0 | 3.0 | 0.00 | 0.00 | 0.00 | 84 | 999.2 |
| 20260830115904 | 85 | 347 | 0.0 | 2.0 | 0.00 | 0.00 | 0.00 | 83 | 999.0 |
| 20260830114404 | 86 | 18 | 0.0 | 2.0 | 0.00 | 0.00 | 0.00 | 82 | 998.8 |
| 20260830113904 | 86 | 357 | 1.0 | 2.0 | 0.00 | 0.00 | 0.00 | 82 | 998.6 |
| 20260830113403 | 86 | 356 | 0.0 | 1.0 | 0.00 | 0.00 | 0.00 | 82 | 998.6 |
| 20260830112904 | 85 | 36 | 0.0 | 1.0 | 0.00 | 0.00 | 0.00 | 82 | 998.6 |
| 20260830111405 | 85 | 351 | 0.0 | 1.0 | 0.00 | 0.00 | 0.00 | 83 | 998.4 |
| 20260830110404 | 85 | 344 | 0.0 | 1.0 | 0.00 | 0.00 | 0.00 | 84 | 998.4 |
| 20260830105904 | 85 | 12 | 0.0 | 2.0 | 0.00 | 0.00 | 0.00 | 84 | 998.4 |
| 20260830105404 | 85 | 339 | 0.0 | 2.0 | 0.00 | 0.00 | 0.00 | 85 | 998.3 |
| 20260830104904 | 85 | 347 | 1.0 | 3.0 | 0.00 | 0.00 | 0.00 | 86 | 998.3 |
| 20260830104404 | 85 | 335 | 0.0 | 1.0 | 0.00 | 0.00 | 0.00 | 85 | 998.2 |
| 20260830103904 | 85 | 343 | 0.0 | 1.0 | 0.00 | 0.00 | 0.00 | 86 | 998.2 |